This is the latest recevied weather packets stored in our database for station/object HF3P-11. If no packets are shown the sender has not sent any weather packets the latest 1 day(s).
| Time | Temp. | Humidity | Pressure | Rain* | Wind** | Luminosity | Snow |
|---|---|---|---|---|---|---|---|
| 1777965008 | 17.22° C | 78% | 1002.5 hPa | 0 mm | 2.68 m/s, 40° | - | - |
| 1777964702 | 17.22° C | 82% | 1002.6 hPa | 0 mm | 1.79 m/s, 57° | - | - |
| 1777964408 | 17.22° C | 82% | 1002.7 hPa | 0 mm | 1.79 m/s, 75° | - | - |
| 1777964101 | 16.11° C | 83% | 1002.8 hPa | 0 mm | 2.24 m/s, 68° | - | - |
| 1777963810 | 16.11° C | 84% | 1002.7 hPa | 0 mm | 2.24 m/s, 68° | - | - |
| 1777963502 | 15.56° C | 86% | 1002.9 hPa | 0 mm | 1.79 m/s, 66° | - | - |
| 1777963208 | 15.56° C | 86% | 1002.8 hPa | 0 mm | 1.79 m/s, 60° | - | - |
| 1777962901 | 15.56° C | 87% | 1002.8 hPa | 0 mm | 1.79 m/s, 55° | - | - |
| 1777962609 | 15.56° C | 87% | 1002.9 hPa | 0 mm | 1.79 m/s, 55° | - | - |
| 1777962301 | 15.56° C | 88% | 1003 hPa | 0 mm | 1.79 m/s, 68° | - | - |
| 1777962009 | 15° C | 88% | 1002.7 hPa | 0 mm | 1.79 m/s, 69° | - | - |
| 1777961701 | 15° C | 88% | 1002.8 hPa | 0 mm | 1.79 m/s, 77° | - | - |
| 1777961411 | 15° C | 88% | 1002.8 hPa | 0 mm | 2.24 m/s, 100° | - | - |
| 1777961101 | 15° C | 88% | 1002.8 hPa | 0 mm | 2.24 m/s, 97° | - | - |
| 1777960809 | 15° C | 88% | 1002.9 hPa | 0 mm | 1.79 m/s, 76° | - | - |
| 1777960502 | 15° C | 89% | 1003 hPa | 0 mm | 1.79 m/s, 80° | - | - |
| 1777960211 | 15° C | 89% | 1002.9 hPa | 0 mm | 2.24 m/s, 82° | - | - |
| 1777959901 | 14.44° C | 90% | 1002.9 hPa | 0 mm | 1.79 m/s, 85° | - | - |
| 1777959611 | 14.44° C | 93% | 1002.9 hPa | 0 mm | 1.79 m/s, 85° | - | - |
| 1777959301 | 14.44° C | 94% | 1002.9 hPa | 0 mm | 1.34 m/s, 76° | - | - |
| 1777959011 | 13.89° C | 95% | 1003 hPa | 0 mm | 1.34 m/s, 80° | - | - |
| 1777958702 | 13.33° C | 96% | 1002.9 hPa | 0 mm | 1.34 m/s, 94° | - | - |
| 1777958409 | 13.33° C | 97% | 1003 hPa | 0 mm | 1.34 m/s, 109° | - | - |
| 1777958101 | 13.33° C | 97% | 1003.1 hPa | 0 mm | 1.34 m/s, 98° | - | - |
| 1777957809 | 12.78° C | 97% | 1003.1 hPa | 0 mm | 1.79 m/s, 89° | - | - |
* Rain latest hour (hover to see other rain measurements)
** Current wind speed in m/s (hover to see current wind gust speed)